Bowling Green, KY

5:15 PM CST on November 23, 2017 (GMT -0600)
Bowling Green-Warren County Regional

Weather History for KBWG - October, 2013

Change the Weather History Date:

Thursday, October 31, 2013

  Actual Average Record
Temperature  
Mean Temperature 65 °F 54 °F  
Max Temperature 71 °F 66 °F 87 °F (1922)
Min Temperature 59 °F 42 °F 17 °F (1887)
Degree Days  
Heating Degree Days 0 11  
Month to date heating degree days 238 227  
Since 1 July heating degree days 250 263  
Cooling Degree Days 0 0  
Month to date cooling degree days 47 33  
Year to date cooling degree days 1499 1488  
Growing Degree Days 17 (Base 50)    
Moisture  
Dew Point 60 °F    
Average Humidity 78    
Maximum Humidity 93    
Minimum Humidity 63    
Precipitation  
Precipitation 0.96 in 0.11 in 2.70 in (1942)
Month to date precipitation 4.04 3.38  
Year to date precipitation 51.83 40.87  
Snow  
Snow 0.00 in 0.00 in 0.90 in (1993)
Month to date snowfall 0.0 T  
Since 1 July snowfall 0.0 T  
Since 1 September snowfall 0.0 T  
Snow Depth 0.00 in    
Sea Level Pressure  
Sea Level Pressure 29.68 in    
Wind  
Wind Speed 17 mph (SSW)    
Max Wind Speed 35 mph    
Max Gust Speed 47 mph    
Visibility 8 miles    
Events Rain    
T = Trace of Precipitation, MM = Missing Value Source: NWS Daily Summary

Daily Weather History Graph

Daily Weather History Graph

Search for Another Location

Airport or City:

Trip Planner

Search our weather history database for the weather conditions in past years. The results will help you decide how hot, cold, wet, or windy it might be!

Date:

Astronomy

Oct. 31, 2013 Rise Set
Actual Time 7:08 AM CDT 5:49 PM CDT
Civil Twilight 6:42 AM CDT 6:15 PM CDT
Nautical Twilight 6:11 AM CDT 6:46 PM CDT
Astronomical Twilight 5:41 AM CDT 7:16 PM CDT
Moon 4:02 AM CDT (10/31) 4:03 PM CDT (10/31)
Length of Visible Light 11h 33m
Length of Day
10h 40m
Waning Crescent, 10% of the Moon is Illuminated
Oct 31
Waning Crescent
Nov 3
New
Nov 9
First Quarter
Nov 17
Full
Nov 25
Last Quarter

Hourly Weather History & Observations

Time (CDT) Temp. Dew Point Humidity Pressure Visibility Wind Dir Wind Speed Gust Speed Precip Events Conditions
12:53 AM 66.9 °F 54.0 °F 63% 30.02 in 10.0 mi South 6.9 mph - N/A   Clear
1:53 AM 66.0 °F 55.0 °F 68% 30.00 in 10.0 mi South 6.9 mph - N/A   Clear
2:53 AM 66.9 °F 55.0 °F 66% 29.99 in 10.0 mi South 10.4 mph - N/A   Overcast
3:53 AM 66.9 °F 55.0 °F 66% 29.96 in 10.0 mi South 10.4 mph - N/A   Overcast
4:53 AM 66.0 °F 55.0 °F 68% 29.96 in 10.0 mi South 9.2 mph - N/A   Overcast
5:53 AM 66.0 °F 55.9 °F 70% 29.94 in 10.0 mi South 11.5 mph - N/A   Mostly Cloudy
6:53 AM 66.0 °F 55.9 °F 70% 29.91 in 10.0 mi South 11.5 mph - 0.00 in   Overcast
7:53 AM 64.9 °F 55.0 °F 70% 29.89 in 10.0 mi South 12.7 mph - 0.00 in   Overcast
8:53 AM 63.0 °F 55.9 °F 78% 29.90 in 7.0 mi South 17.3 mph 21.9 mph 0.00 in Rain Light Rain
9:53 AM 63.0 °F 57.9 °F 84% 29.85 in 8.0 mi South 13.8 mph 19.6 mph 0.04 in Rain Light Rain
10:53 AM 64.9 °F 57.9 °F 78% 29.81 in 10.0 mi South 24.2 mph 35.7 mph 0.00 in   Overcast
11:00 AM 64.4 °F 57.2 °F 77% 29.81 in 10.0 mi South 18.4 mph 35.7 mph N/A   Overcast
11:53 AM 64.0 °F 59.0 °F 84% 29.77 in 8.0 mi South 23.0 mph 35.7 mph 0.01 in Rain Light Rain
12:03 PM 64.4 °F 59.0 °F 83% 29.76 in 9.0 mi South 25.3 mph 35.7 mph 0.00 in Rain Light Rain
12:53 PM 64.0 °F 60.1 °F 87% 29.72 in 8.0 mi South 23.0 mph 32.2 mph 0.03 in Rain Light Rain
1:38 PM 66.2 °F 60.8 °F 83% 29.70 in 10.0 mi South 20.7 mph 33.4 mph 0.00 in   Overcast
1:53 PM 66.0 °F 61.0 °F 84% 29.68 in 10.0 mi South 21.9 mph 34.5 mph 0.00 in Rain Light Rain
2:53 PM 66.0 °F 62.1 °F 87% 29.64 in 8.0 mi South 20.7 mph 28.8 mph 0.02 in Rain Light Rain
3:53 PM 66.9 °F 63.0 °F 87% 29.62 in 5.0 mi South 20.7 mph 31.1 mph 0.04 in Rain Rain
4:53 PM 68.0 °F 64.0 °F 87% 29.57 in 9.0 mi South 20.7 mph 31.1 mph 0.05 in Rain Light Rain
5:42 PM 68.0 °F 62.6 °F 83% 29.57 in 10.0 mi South 26.5 mph 33.4 mph 0.01 in   Overcast
5:53 PM 69.1 °F 63.0 °F 81% 29.55 in 10.0 mi South 25.3 mph 40.3 mph 0.01 in   Overcast
6:19 PM 69.8 °F 62.6 °F 78% 29.56 in 10.0 mi South 25.3 mph 38.0 mph N/A   Overcast
6:53 PM 69.1 °F 63.0 °F 81% 29.54 in 10.0 mi SSW 24.2 mph 41.4 mph 0.00 in Rain Light Rain
7:15 PM 69.8 °F 62.6 °F 78% 29.54 in 10.0 mi South 24.2 mph 33.4 mph 0.00 in   Overcast
7:26 PM 69.8 °F 62.6 °F 78% 29.53 in 10.0 mi South 24.2 mph 36.8 mph 0.00 in   Overcast
7:33 PM 69.8 °F 62.6 °F 78% 29.52 in 10.0 mi South 31.1 mph 47.2 mph 0.00 in   Overcast
7:53 PM 71.1 °F 62.1 °F 73% 29.52 in 10.0 mi SSW 28.8 mph 41.4 mph 0.00 in   Overcast
8:14 PM 69.8 °F 62.6 °F 78% 29.53 in 10.0 mi SSW 25.3 mph 43.7 mph 0.00 in Rain Light Rain
8:30 PM 71.6 °F 62.6 °F 73% 29.53 in 10.0 mi SSW 25.3 mph 40.3 mph 0.00 in   Overcast
8:53 PM 71.1 °F 62.1 °F 73% 29.54 in 10.0 mi WSW 17.3 mph 33.4 mph 0.00 in Rain Light Rain
9:01 PM 66.2 °F 62.6 °F 88% 29.56 in 2.0 mi WSW 20.7 mph 29.9 mph 0.14 in Rain Heavy Rain
9:03 PM 66.2 °F 62.6 °F 88% 29.55 in 1.2 mi WSW 21.9 mph 32.2 mph 0.23 in Rain Heavy Rain
9:14 PM 66.2 °F 62.6 °F 88% 29.57 in 2.0 mi WSW 20.7 mph 27.6 mph 0.36 in Rain Heavy Rain
9:25 PM 66.2 °F 64.4 °F 94% 29.56 in 1.8 mi SW 15.0 mph 28.8 mph 0.50 in Rain Heavy Rain
9:43 PM 66.2 °F 64.4 °F 94% 29.56 in 1.8 mi SSW 17.3 mph 32.2 mph 0.68 in Rain Rain
9:47 PM 66.2 °F 64.4 °F 94% 29.57 in 3.0 mi SW 21.9 mph 28.8 mph 0.70 in Rain Rain
9:53 PM 66.9 °F 64.0 °F 90% 29.57 in 3.0 mi SW 20.7 mph 33.4 mph 0.72 in Rain Heavy Rain
10:15 PM 66.2 °F 64.4 °F 94% 29.58 in 10.0 mi SW 18.4 mph 29.9 mph 0.04 in   Overcast
10:53 PM 68.0 °F 63.0 °F 84% 29.58 in 10.0 mi SW 16.1 mph 24.2 mph 0.04 in   Mostly Cloudy
11:29 PM 66.2 °F 60.8 °F 83% 29.63 in 10.0 mi West 21.9 mph 39.1 mph N/A   Overcast
11:40 PM 64.4 °F 55.4 °F 73% 29.63 in 10.0 mi West 16.1 mph 31.1 mph N/A   Mostly Cloudy
11:53 PM 63.0 °F 54.0 °F 72% 29.64 in 10.0 mi West 12.7 mph 25.3 mph N/A   Partly Cloudy